Stations météo

réclame
Mon MeteoGroup
Stockholm/Bromma, Suède (2464): Température de l'air & dewpoint: 13.09.2019 06:00:00 - 19.09.2019 06:00:00 (CEST)Stockholm/Bromma, Suède (2464): Vitesse du vent: 13.09.2019 06:00:00 - 19.09.2019 06:00:00 (CEST)Stockholm/Bromma, Suède (2464): Direction du vent: 13.09.2019 06:00:00 - 19.09.2019 06:00:00 (CEST)Stockholm/Bromma, Suède (2464): reduced air pressure: 13.09.2019 06:00:00 - 19.09.2019 06:00:00 (CEST)Stockholm/Bromma, Suède (2464): visibility: 13.09.2019 06:00:00 - 19.09.2019 06:00:00 (CEST)
Date & Time tt [°C] td [°C] ff [km/h] ff [knt] dd ppp [hPa] vv [km]
19.09.2019 06:00:00 6,1 4,4 11 6 WNW 1016,7 10
19.09.2019 05:00:00 4,5 3,3 9 5 WNW 1016,3 10
19.09.2019 04:00:00 4,9 3,2 9 5 WNW 1016,0 10
19.09.2019 03:00:00 6,0 3,7 11 6 WNW 1015,9 10
19.09.2019 02:00:00 6,6 4,8 8 4 WNW 1015,5 10
19.09.2019 01:00:00 4,7 3,7 4 2 WNW 1015,2 10
19.09.2019 00:00:00 7,1 4,6 5 3 W 1015,1 10
18.09.2019 23:00:00 7,8 4,7 5 3 W 1015,0 10
18.09.2019 22:00:00 6,8 4,6 5 3 WNW 1014,9 10
18.09.2019 21:00:00 7,0 3,6 8 4 W 1014,8 10
18.09.2019 20:00:00 8,2 4,2 11 6 NW 1014,4 10
18.09.2019 19:00:00 10,4 3,7 15 8 NW 1013,9 10
18.09.2019 18:00:00 11,9 3,4 13 7 NW 1013,3 10
18.09.2019 17:00:00 11,7 3,2 21 11 NNW 1012,7 10
18.09.2019 16:00:00 13,3 3,6 21 11 NW 1012,1 10
18.09.2019 15:00:00 12,5 4,2 22 12 NW 1011,7 10
18.09.2019 14:00:00 11,5 4,9 21 11 NNW 1011,5 10
18.09.2019 13:00:00 11,3 5,8 16 9 NNW 1010,8 10
18.09.2019 12:00:00 10,6 5,6 21 11 NW 1010,3 10
18.09.2019 11:00:00 9,8 5,6 21 11 NW 1009,7 10
18.09.2019 10:00:00 8,9 4,7 18 10 NW 1009,0 10
18.09.2019 09:00:00 7,4 4,5 18 10 NW 1008,3 10
18.09.2019 08:00:00 6,5 4,0 16 9 NW 1007,8 10
18.09.2019 07:00:00 6,0 4,0 13 7 NW 1007,1 10
18.09.2019 06:00:00 5,8 4,0 15 8 WNW 1006,6 10
18.09.2019 05:00:00 6,1 4,4 15 8 WNW 1006,0 10
18.09.2019 04:00:00 6,3 4,5 15 8 WNW 1005,6 10
18.09.2019 03:00:00 6,2 4,5 13 7 NW 1005,0 10
18.09.2019 02:00:00 6,5 4,7 13 7 WNW 1004,7 10
18.09.2019 01:00:00 6,7 4,9 13 7 NW 1004,4 10
18.09.2019 00:00:00 7,1 4,9 11 6 NW 1004,0 10
17.09.2019 23:00:00 7,4 5,2 11 6 WNW 1003,5 10
17.09.2019 22:00:00 8,1 5,6 13 7 NW 1003,0 10
17.09.2019 21:00:00 8,0 6,1 11 6 NNW 1002,4 10
17.09.2019 20:00:00 9,2 7,1 11 6 NNW 1001,9 10
17.09.2019 19:00:00 10,8 4,5 16 9 NNW 1001,0 10
17.09.2019 18:00:00 11,1 4,1 24 13 N 1000,5 10
17.09.2019 17:00:00 12,1 3,6 21 11 N 999,7 10
17.09.2019 16:00:00 12,9 3,3 18 10 N 999,2 10
17.09.2019 15:00:00 12,7 2,8 15 8 N 998,7 10
17.09.2019 14:00:00 13,2 3,0 15 8 NNE 998,5 10
17.09.2019 13:00:00 14,2 1,8 15 8 NNE 997,9 10
17.09.2019 12:00:00 12,9 2,4 11 6 N 998,1 10
17.09.2019 11:00:00 12,1 5,5 5 3 N 998,4 10
17.09.2019 10:00:00 10,8 6,5 4 2 - 998,7 10
17.09.2019 09:00:00 9,2 7,1 0 0 N 999,0 10
17.09.2019 08:00:00 6,2 6,1 0 0 N 999,3 10
17.09.2019 07:00:00 2,9 2,8 0 0 N 999,5 10
17.09.2019 06:00:00 3,5 3,4 0 0 N 999,9 10
17.09.2019 05:00:00 3,8 3,7 0 0 N 1000,5 1,6
17.09.2019 04:00:00 5,2 4,8 0 0 N 1001,0 10
17.09.2019 03:00:00 6,1 5,4 4 2 SW 1001,2 10
17.09.2019 02:00:00 8,0 6,5 8 4 W 1001,6 10
17.09.2019 01:00:00 8,6 6,7 5 3 - 1002,1 10
17.09.2019 00:00:00 8,7 6,7 11 6 WSW 1002,4 10
16.09.2019 23:00:00 9,2 6,1 15 8 W 1002,7 10
16.09.2019 22:00:00 9,3 6,2 22 12 WNW 1003,2 10
16.09.2019 21:00:00 10,2 6,3 24 13 WNW 1003,0 10
16.09.2019 20:00:00 10,7 6,3 21 11 WNW 1002,7 10
16.09.2019 19:00:00 10,7 6,4 24 13 WNW 1002,4 10
16.09.2019 18:00:00 11,1 6,0 16 9 WNW 1002,0 10
16.09.2019 17:00:00 12,7 4,9 28 15 WNW 1001,5 10
16.09.2019 16:00:00 13,4 4,0 24 13 WNW 1001,1 10
16.09.2019 15:00:00 13,3 3,9 22 12 WNW 1000,8 10
16.09.2019 14:00:00 13,1 3,5 29 16 WNW 1000,6 10
16.09.2019 13:00:00 13,2 3,3 24 13 WNW 1000,0 10
16.09.2019 12:00:00 12,9 3,3 28 15 W 999,5 10
16.09.2019 11:00:00 12,7 3,9 31 17 WNW 998,9 10
16.09.2019 10:00:00 13,2 4,9 29 16 W 998,4 10
16.09.2019 09:00:00 12,5 4,5 35 19 W 998,1 10
16.09.2019 08:00:00 12,2 4,7 26 14 W 997,6 10
16.09.2019 07:00:00 11,4 5,1 26 14 W 997,2 10
16.09.2019 06:00:00 11,7 4,9 24 13 W 996,6 10
16.09.2019 05:00:00 12,1 5,0 24 13 W 996,4 10
16.09.2019 04:00:00 12,2 5,4 22 12 W 996,0 10
16.09.2019 03:00:00 12,6 5,7 22 12 W 995,2 10
16.09.2019 02:00:00 13,0 5,9 24 13 W 994,8 10
16.09.2019 01:00:00 12,8 7,7 26 14 W 994,5 10
16.09.2019 00:00:00 12,8 7,9 26 14 WSW 994,2 10
15.09.2019 23:00:00 12,8 7,5 28 15 W 994,1 10
15.09.2019 22:00:00 12,9 7,1 31 17 WSW 994,2 10
15.09.2019 21:00:00 13,2 6,5 28 15 W 994,3 10
15.09.2019 20:00:00 13,7 6,1 28 15 W 994,4 10
15.09.2019 19:00:00 14,1 4,9 31 17 W 994,5 10
15.09.2019 18:00:00 14,9 5,1 34 18 W 994,8 10
15.09.2019 17:00:00 15,6 5,2 39 21 W 994,8 10
15.09.2019 16:00:00 16,0 5,0 37 20 W 995,0 10
15.09.2019 15:00:00 16,4 5,9 37 20 WSW 994,8 10
15.09.2019 14:00:00 16,3 5,9 37 20 W 995,3 10
15.09.2019 13:00:00 16,2 5,5 39 21 W 995,1 10
15.09.2019 12:00:00 15,8 7,0 37 20 W 995,0 10
15.09.2019 11:00:00 15,3 10,1 35 19 WSW 994,8 10
15.09.2019 10:00:00 14,2 11,5 21 11 SW 995,6 10
15.09.2019 09:00:00 13,0 11,6 18 10 SW 996,8 10
15.09.2019 08:00:00 11,9 10,5 22 12 SW 998,4 10
15.09.2019 07:00:00 11,4 10,0 26 14 SW 999,9 10
15.09.2019 06:00:00 11,1 9,8 22 12 SSW 1001,2 10
15.09.2019 05:00:00 10,8 9,9 24 13 SSW 1003,2 10
15.09.2019 04:00:00 10,8 9,9 18 10 SSW 1005,5 10
15.09.2019 03:00:00 11,1 10,0 18 10 SSW 1007,6 10
15.09.2019 02:00:00 11,6 9,7 21 11 S 1009,5 10
15.09.2019 01:00:00 11,9 8,7 15 8 SSW 1011,4 10
15.09.2019 00:00:00 12,7 9,2 15 8 SW 1013,2 10
14.09.2019 23:00:00 12,3 9,9 15 8 SW 1014,7 10
14.09.2019 22:00:00 11,9 9,5 15 8 SSW 1016,0 10
14.09.2019 21:00:00 12,5 8,2 13 7 SSW 1017,0 10
14.09.2019 20:00:00 13,3 5,7 8 4 SSW 1017,7 10
14.09.2019 19:00:00 14,3 4,8 15 8 WSW 1018,3 10
14.09.2019 18:00:00 14,7 5,2 16 9 W 1018,8 10
14.09.2019 17:00:00 15,7 4,4 16 9 W 1019,4 10
14.09.2019 16:00:00 15,6 3,7 24 13 W 1020,1 10
14.09.2019 15:00:00 15,6 3,1 26 14 WSW 1020,3 10
14.09.2019 14:00:00 15,1 3,3 22 12 WSW 1021,0 10
14.09.2019 13:00:00 14,8 4,8 22 12 WSW 1021,2 10
14.09.2019 12:00:00 13,9 5,0 21 11 WSW 1021,4 10
14.09.2019 11:00:00 13,3 4,2 16 9 W 1021,7 10
14.09.2019 10:00:00 12,1 4,3 22 12 WNW 1021,8 10
14.09.2019 09:00:00 11,4 4,6 18 10 W 1021,2 10
14.09.2019 08:00:00 10,9 4,6 22 12 W 1020,7 10
14.09.2019 07:00:00 10,2 5,0 15 8 W 1020,4 10
14.09.2019 06:00:00 10,2 5,2 21 11 W 1020,1 10
14.09.2019 05:00:00 10,5 5,7 13 7 WSW 1019,7 10
14.09.2019 04:00:00 10,6 5,6 13 7 WSW 1019,5 10
14.09.2019 03:00:00 10,3 5,7 11 6 SW 1019,2 10
14.09.2019 02:00:00 11,2 6,3 9 5 WSW 1019,0 10
14.09.2019 01:00:00 12,2 6,5 13 7 W 1018,8 10
14.09.2019 00:00:00 13,0 5,9 16 9 W 1018,4 10
13.09.2019 23:00:00 13,1 5,7 11 6 WSW 1018,1 10
13.09.2019 22:00:00 13,6 5,5 15 8 W 1017,9 10
13.09.2019 21:00:00 14,1 6,0 13 7 W 1017,6 10
13.09.2019 20:00:00 15,0 4,7 18 10 W 1017,1 10
13.09.2019 19:00:00 16,3 4,0 21 11 W 1016,4 10
13.09.2019 18:00:00 16,9 4,2 28 15 W 1015,8 10
13.09.2019 17:00:00 17,7 5,0 28 15 WNW 1015,3 10
13.09.2019 16:00:00 17,5 6,4 26 14 W 1014,7 10
13.09.2019 15:00:00 17,1 7,2 31 17 WNW 1013,9 10
13.09.2019 14:00:00 17,0 8,4 28 15 W 1013,3 10
13.09.2019 13:00:00 15,7 8,7 28 15 W 1012,5 10
13.09.2019 12:00:00 15,7 9,6 24 13 W 1012,1 10
13.09.2019 11:00:00 15,8 10,1 21 11 WSW 1011,4 10
13.09.2019 10:00:00 14,9 10,9 18 10 W 1011,5 10
13.09.2019 09:00:00 14,0 11,2 21 11 WSW 1011,5 10
13.09.2019 08:00:00 13,5 11,0 18 10 SW 1011,2 10
13.09.2019 07:00:00 13,4 10,2 15 8 WSW 1011,3 10
13.09.2019 06:00:00 13,4 10,0 21 11 SW 1011,3 10

tt = Température de l'air
td = dewpoint
ff = Vitesse du vent
dd = Direction du vent
ppp = reduced air pressure
vv = visibility

stations d'obs. à proximité